This is the latest recevied weather packets stored in our database for station/object KD9IXX-13. If no packets are shown the sender has not sent any weather packets the latest 10 day(s).
| Time | Temp. | Humidity | Pressure | Rain* | Wind** | Luminosity | Snow |
|---|---|---|---|---|---|---|---|
| 1777991103 | 7.22° C | 96% | 1010.5 hPa | 0 mm | - | 142 W/m² | - |
| 1777990802 | 7.22° C | 96% | 1010.8 hPa | 0 mm | - | 76 W/m² | - |
| 1777990502 | 7.22° C | 96% | 1011.1 hPa | 0 mm | - | 96 W/m² | - |
| 1777989902 | 7.22° C | 97% | 1011.3 hPa | 0 mm | - | 137 W/m² | - |
| 1777989602 | 7.22° C | 97% | 1011.3 hPa | 0 mm | - | 131 W/m² | - |
| 1777989302 | 6.67° C | 96% | 1011.2 hPa | 1.02 mm | - | 84 W/m² | - |
| 1777989002 | 6.67° C | 96% | 1011.2 hPa | 0 mm | - | 55 W/m² | - |
| 1777988702 | 6.67° C | 96% | 1011.2 hPa | 0 mm | - | 58 W/m² | - |
| 1777988402 | 6.67° C | 95% | 1011.3 hPa | 1.78 mm | - | 46 W/m² | - |
| 1777988102 | 6.67° C | 95% | 1011.6 hPa | 1.78 mm | - | 38 W/m² | - |
| 1777987802 | 7.22° C | 94% | 1011.8 hPa | 1.02 mm | - | 35 W/m² | - |
| 1777987502 | 7.22° C | 93% | 1011.8 hPa | 2.79 mm | - | 32 W/m² | - |
| 1777987202 | 7.22° C | 92% | 1011.4 hPa | 3.56 mm | - | 29 W/m² | - |
| 1777986902 | 7.22° C | 91% | 1011.3 hPa | 1.78 mm | - | 27 W/m² | - |
| 1777986602 | 7.22° C | 90% | 1010.8 hPa | 0 mm | - | 19 W/m² | - |
| 1777986302 | 7.22° C | 90% | 1010.7 hPa | 0 mm | - | 19 W/m² | - |
| 1777986002 | 7.22° C | 90% | 1010.9 hPa | 0 mm | - | 18 W/m² | - |
| 1777985701 | 7.22° C | 90% | 1010.6 hPa | 1.02 mm | - | 30 W/m² | - |
| 1777985402 | 7.78° C | 88% | 1010.4 hPa | 2.79 mm | - | 22 W/m² | - |
| 1777985102 | 7.78° C | 87% | 1010 hPa | 1.78 mm | - | 20 W/m² | - |
| 1777984802 | 8.33° C | 86% | 1009.7 hPa | 1.02 mm | - | 16 W/m² | - |
| 1777984502 | 8.89° C | 82% | 1009.5 hPa | 1.02 mm | - | 17 W/m² | - |
| 1777984202 | 8.89° C | 78% | 1009.5 hPa | 0 mm | - | 18 W/m² | - |
| 1777983902 | 9.44° C | 75% | 1010 hPa | 0 mm | - | 14 W/m² | - |
| 1777983602 | 10° C | 73% | 1009.9 hPa | 0 mm | - | 10 W/m² | - |
* Rain latest hour (hover to see other rain measurements)
** Current wind speed in m/s (hover to see current wind gust speed)